GW1126 Weather Reports


time (UTC)temp
C
wind
direction
speed
KPH
gust
KPH
rain 1hr
cm
rain 24hr
cm
rain mn
cm
humidity
%
barometer
mb
20260906202536 30 192 1.6 4.8 0.00 3.68 3.68 58 1017.6
20260906202030 30 164 0.0 0.0 0.00 3.68 3.68 58 1017.7
20260906201524 30 201 0.0 0.0 0.00 3.68 3.68 58 1017.8
20260906201023 30 190 3.2 8.0 0.00 3.68 3.68 57 1017.7
20260906200520 30 219 1.6 1.6 0.00 3.68 3.68 56 1018.1
20260906200015 30 164 0.0 3.2 0.00 3.68 3.68 57 1018.2
20260906195511 30 283 1.6 4.8 0.00 3.68 3.68 57 1018.3
20260906195007 31 186 1.6 3.2 0.00 3.68 3.68 56 1018.2
20260906194502 30 186 0.0 3.2 0.00 3.68 3.68 57 1018.1
20260906193958 30 187 1.6 1.6 0.00 3.68 3.68 57 1018.5
20260906193453 30 174 1.6 3.2 0.00 3.68 3.68 56 1018.5
20260906192948 30 133 0.0 3.2 0.00 3.68 3.68 58 1018.2
20260906192443 30 197 0.0 0.0 0.00 3.68 3.68 59 1018.4
20260906191942 30 163 0.0 0.0 0.00 3.68 3.68 61 1018.4
20260906191437 30 195 4.8 9.7 0.00 3.68 3.68 59 1018.5
20260906190936 30 178 8.0 12.9 0.00 3.68 3.68 59 1018.7
20260906190435 30 154 8.0 11.3 0.00 3.68 3.68 58 1018.6
20260906185930 29 193 0.0 3.2 0.00 3.68 3.68 61 1018.6
20260906185430 29 171 4.8 9.7 0.00 3.68 3.68 60 1018.7
20260906184929 29 213 3.2 4.8 0.00 3.68 3.68 61 1018.6
20260906184424 28 196 0.0 0.0 0.00 3.68 3.68 61 1018.8
20260906183919 29 174 8.0 11.3 0.00 3.68 3.68 61 1018.8
20260906183416 29 240 4.8 12.9 0.00 3.68 3.68 61 1018.9
20260906182911 28 249 0.0 0.0 0.00 3.68 3.68 64 1019.0
20260906182406 28 219 0.0 0.0 0.00 3.68 3.68 62 1018.9
20260906181901 29 219 0.0 0.0 0.00 3.68 3.68 63 1019.3
20260906181357 28 204 4.8 9.7 0.00 3.68 3.68 64 1019.3
20260906180853 28 243 6.4 11.3 0.00 3.68 3.68 64 1019.5
20260906180348 28 279 4.8 9.7 0.00 3.68 3.68 64 1019.3
20260906175845 28 290 3.2 8.0 0.00 3.68 3.68 65 1019.4
20260906175340 28 234 11.3 14.5 0.00 3.68 3.68 66 1019.7
20260906174839 28 156 3.2 4.8 0.00 3.68 3.68 66 1019.4
20260906174333 27 181 3.2 11.3 0.00 3.68 3.68 67 1019.5
20260906173828 27 276 0.0 0.0 0.00 3.68 3.68 69 1019.7
20260906173324 27 205 0.0 1.6 0.00 3.68 3.68 68 1019.6
20260906172823 27 181 9.7 12.9 0.00 3.68 3.68 69 1020.0
20260906172319 27 186 0.0 0.0 0.00 3.68 3.68 69 1019.8
20260906171814 27 206 0.0 0.0 0.00 3.68 3.68 68 1019.9
20260906171309 27 229 0.0 0.0 0.00 3.68 3.68 68 1020.1
20260906170804 27 226 0.0 3.2 0.00 3.68 3.68 68 1020.1
20260906170300 27 166 4.8 12.9 0.00 3.68 3.68 67 1020.0
20260906165756 27 194 1.6 4.8 0.00 3.68 3.68 69 1019.9
20260906165250 26 189 0.0 0.0 0.00 3.68 3.68 70 1020.2
20260906164749 26 198 1.6 3.2 0.00 3.68 3.68 71 1020.2
20260906164244 26 225 0.0 0.0 0.00 3.68 3.68 70 1019.9
20260906163740 26 221 1.6 4.8 0.00 3.68 3.68 70 1020.0
20260906163237 26 199 1.6 9.7 0.00 3.68 3.68 69 1020.1
20260906162733 26 160 0.0 0.0 0.00 3.68 3.68 71 1020.3
20260906162228 26 175 0.0 0.0 0.00 3.68 3.68 72 1020.1
20260906161722 26 180 1.6 8.0 0.00 3.68 3.68 74 1020.4
20260906161222 25 112 0.0 1.6 0.00 3.68 3.68 73 1020.4
20260906160720 25 167 0.0 0.0 0.00 3.68 3.68 76 1020.4
20260906160220 25 166 0.0 3.2 0.00 3.68 3.68 76 1020.3
20260906155718 25 209 3.2 8.0 0.00 3.68 3.68 77 1020.2
20260906155213 24 201 11.3 12.9 0.00 3.68 3.68 77 1019.8
20260906154708 24 191 16.1 20.9 0.00 3.68 3.68 78 1020.1
20260906154203 23 191 1.6 4.8 0.00 3.68 3.68 80 1020.1
20260906153701 23 168 11.3 14.5 0.00 3.68 3.68 80 1020.0
20260906153155 23 214 8.0 11.3 0.00 3.68 3.68 81 1020.0
20260906152651 23 176 9.7 11.3 0.00 3.68 3.68 82 1019.8
20260906152145 23 188 0.0 0.0 0.00 3.68 3.68 82 1020.1
20260906151640 22 181 0.0 1.6 0.00 3.68 3.68 82 1019.9
20260906151136 22 197 11.3 16.1 0.00 3.68 3.68 83 1019.9
20260906150631 22 209 12.9 16.1 0.00 3.68 3.68 83 1019.8
20260906150126 22 222 3.2 3.2 0.00 3.68 3.68 84 1020.0
20260906145625 22 235 3.2 4.8 0.00 3.68 3.68 85 1019.8
20260906145120 22 159 3.2 8.0 0.00 3.68 3.68 85 1020.0
20260906144614 22 191 6.4 9.7 0.00 3.68 3.68 86 1020.0
20260906144109 21 194 3.2 4.8 0.00 3.68 3.68 87 1020.2
20260906143609 21 139 8.0 9.7 0.00 3.68 3.68 88 1019.8
20260906143106 21 136 1.6 1.6 0.00 3.68 3.68 88 1019.7
20260906142605 21 125 0.0 0.0 0.00 3.68 3.68 89 1019.8
20260906142101 21 139 8.0 9.7 0.00 3.68 3.68 88 1019.8
20260906141559 21 111 1.6 1.6 0.00 3.68 3.68 87 1019.8
20260906141055 21 107 3.2 4.8 0.00 3.68 3.68 89 1019.7
20260906140554 20 130 3.2 3.2 0.00 3.68 3.68 91 1019.6
20260906140049 20 127 0.0 0.0 0.00 3.68 3.68 93 1019.9
20260906135546 20 144 0.0 0.0 0.00 3.68 3.68 94 1019.7
20260906135042 20 118 0.0 0.0 0.00 3.68 3.68 94 1019.8
20260906134537 19 134 0.0 0.0 0.00 3.68 3.68 94 1019.7
20260906134032 20 136 0.0 0.0 0.00 3.68 3.68 93 1019.9
20260906133528 20 154 0.0 0.0 0.00 3.68 3.68 93 1019.6
20260906133023 20 143 0.0 0.0 0.00 3.68 3.68 92 1019.9
20260906132518 20 123 1.6 1.6 0.00 3.68 3.68 92 1019.7
20260906132013 20 153 0.0 0.0 0.00 3.68 3.68 91 1019.5
20260906131509 20 151 0.0 0.0 0.00 3.68 3.68 90 1019.6
20260906131004 20 3 3.2 3.2 0.00 3.68 3.68 90 1019.1
20260906130504 20 118 0.0 1.6 0.00 3.68 3.68 89 1018.9
20260906125958 20 35 4.8 4.8 0.00 3.68 3.68 88 1019.0
20260906125455 20 49 9.7 12.9 0.00 3.68 3.68 86 1018.9
20260906124955 20 133 4.8 9.7 0.00 3.68 3.68 90 1018.4
20260906124451 19 34 6.4 9.7 0.00 3.68 3.68 93 1018.3
20260906123945 20 28 6.4 9.7 0.18 3.68 3.68 92 1017.6
20260906123444 19 117 11.3 16.1 0.18 3.68 3.68 93 1016.8
20260906122939 20 167 12.9 16.1 0.00 3.66 3.66 93 1016.8
20260906122434 19 158 9.7 12.9 0.00 3.66 3.66 93 1017.4
20260906121931 19 173 8.0 9.7 0.00 3.66 3.66 94 1018.4
20260906121427 19 190 0.0 0.0 0.00 3.66 3.66 94 1019.5
20260906120923 19 224 0.0 0.0 0.00 3.66 3.66 94 1019.5
20260906120419 19 168 0.0 0.0 0.00 3.66 3.66 94 1019.0
20260906115914 19 215 0.0 0.0 0.00 3.66 3.66 94 1019.4
20260906115410 19 167 0.0 0.0 0.00 3.66 3.66 93 1019.1
20260906114909 19 220 0.0 0.0 0.00 3.66 3.66 93 1018.7
20260906114404 19 161 0.0 0.0 0.00 3.66 3.66 93 1018.7
20260906113900 19 191 0.0 0.0 0.00 3.66 3.66 92 1018.6
20260906113358 19 94 6.4 8.0 0.00 3.66 3.66 92 1018.7
20260906112854 19 122 11.3 14.5 0.00 3.66 3.66 92 1018.6
20260906112350 19 112 4.8 8.0 0.00 3.66 3.66 93 1018.8
20260906111849 18 139 4.8 4.8 0.00 3.66 3.66 93 1018.6
20260906111344 18 154 3.2 9.7 0.00 3.66 3.66 94 1018.5
20260906110839 18 156 0.0 0.0 0.00 3.66 3.66 95 1018.6
20260906110335 18 146 0.0 1.6 0.00 3.66 3.66 96 1018.1
20260906105833 18 69 0.0 0.0 0.00 3.66 3.66 96 1018.2
20260906105329 18 104 0.0 0.0 0.00 3.66 3.66 96 1018.4
20260906104825 18 76 0.0 0.0 0.00 3.66 3.66 96 1018.4
20260906104323 18 148 0.0 1.6 0.00 3.66 3.66 96 1018.3
20260906103821 18 42 3.2 8.0 0.00 3.66 3.66 96 1016.9
20260906103315 18 129 9.7 14.5 0.00 3.66 3.66 97 1017.3
20260906102811 18 117 8.0 11.3 0.00 3.66 3.66 97 1017.5
20260906102310 18 116 8.0 11.3 0.00 3.66 3.66 97 1017.4
20260906101805 18 104 12.9 14.5 0.18 3.66 3.66 97 1016.8
20260906101306 18 125 20.9 33.8 0.18 3.66 3.66 97 1017.6
20260906100756 18 121 0.0 0.0 0.00 3.63 3.63 97 1017.8
20260906100254 18 109 0.0 0.0 0.00 3.63 3.63 97 1018.1
20260906095750 18 83 3.2 12.9 0.13 3.63 3.63 97 1017.9
20260906095245 18 84 0.0 1.6 0.13 3.63 3.63 97 1018.4
20260906094744 18 129 0.0 1.6 0.30 3.63 3.63 97 1018.5
20260906094240 18 119 0.0 1.6 0.30 3.61 3.61 98 1018.9
20260906093736 18 137 0.0 0.0 0.13 3.58 3.58 97 1019.4
20260906093231 18 144 0.0 0.0 0.61 3.56 3.56 97 1019.8
20260906092726 18 165 0.0 0.0 1.07 3.56 3.56 97 1020.3
20260906092220 18 149 0.0 0.0 1.68 3.45 3.45 97 1020.8
20260906091716 18 166 0.0 0.0 3.07 3.40 3.40 97 1021.1
20260906091207 18 35 0.0 0.0 6.07 3.20 3.20 97 1021.2
20260906090703 18 26 0.0 0.0 6.25 2.87 2.87 96 1022.0
20260906090202 18 33 0.0 0.0 4.75 2.18 2.18 96 1022.2
20260906085701 18 123 0.0 0.0 3.35 1.80 1.80 96 1021.9
20260906085200 18 341 0.0 0.0 1.50 1.40 1.40 95 1021.3
20260906084655 18 175 0.0 0.0 0.97 1.24 1.24 95 1020.8
20260906084155 18 335 0.0 1.6 0.79 1.14 1.14 95 1020.8
20260906083650 18 183 0.0 0.0 0.79 1.07 1.07 95 1020.9
20260906083145 18 3 0.0 0.0 0.30 0.99 0.99 94 1020.6
20260906082640 17 7 0.0 0.0 0.18 0.97 0.97 95 1020.2
20260906082136 17 343 4.8 9.7 0.13 0.94 0.94 95 1020.4
20260906081632 17 43 0.0 0.0 0.13 0.94 0.94 95 1020.4
20260906081126 17 280 1.6 3.2 0.30 0.94 0.94 95 1020.8
20260906080623 18 346 6.4 14.5 0.48 0.91 0.91 96 1020.9
20260906080119 18 222 0.0 0.0 0.79 0.89 0.89 96 1021.3
20260906075613 18 359 0.0 0.0 0.79 0.84 0.84 96 1021.3
20260906075108 18 320 0.0 0.0 0.61 0.79 0.79 96 1021.6
20260906074603 18 137 0.0 0.0 0.61 0.71 0.71 96 1022.0
20260906074101 18 280 0.0 0.0 1.37 0.69 0.69 95 1021.7
20260906073557 18 30 0.0 0.0 1.85 0.64 0.64 95 1021.3
20260906073052 18 89 0.0 1.6 2.59 0.48 0.48 95 1021.1
20260906072546 18 17 0.0 3.2 1.27 0.25 0.25 94 1021.4
20260906072043 18 223 0.0 0.0 0.13 0.05 0.05 93 1021.2
20260906071539 18 263 0.0 0.0 0.18 0.03 0.03 92 1021.0
20260906071034 19 234 0.0 0.0 0.18 0.03 0.03 91 1020.8
20260906070531 20 298 3.2 8.0 0.00 0.00 0.00 88 1021.3
20260906070026 20 254 1.6 3.2 0.00 0.00 0.00 87 1021.1
20260906065525 21 271 4.8 11.3 0.00 0.00 0.00 82 1021.2
20260906065021 25 196 11.3 32.2 0.00 0.00 0.00 80 1020.6
20260906064516 25 158 0.0 0.0 0.00 0.00 0.00 86 1019.1
20260906064011 25 158 0.0 0.0 0.00 0.00 0.00 86 1018.8
20260906063506 25 121 0.0 0.0 0.00 0.00 0.00 87 1018.6
20260906063002 25 43 0.0 0.0 0.00 0.00 0.00 87 1018.5
20260906062456 25 358 0.0 0.0 0.00 0.00 0.00 86 1018.4
20260906061951 25 99 0.0 0.0 0.00 0.00 0.00 86 1018.3
20260906061447 25 113 0.0 0.0 0.00 0.00 0.00 86 1018.6
20260906060941 25 148 0.0 0.0 0.00 0.00 0.00 85 1018.6
20260906060439 25 151 0.0 0.0 0.00 0.00 0.00 85 1018.2
20260906055935 25 136 0.0 0.0 0.00 0.00 0.00 85 1018.1
20260906055430 25 113 0.0 0.0 0.00 0.00 0.00 84 1018.1
20260906054926 25 109 0.0 0.0 0.00 0.00 0.00 84 1017.9
20260906054420 25 141 0.0 0.0 0.00 0.00 0.00 84 1018.2
20260906053916 25 146 0.0 0.0 0.00 0.00 0.00 84 1018.1
20260906053412 25 141 0.0 0.0 0.00 0.00 0.00 84 1018.4
20260906052908 25 142 0.0 0.0 0.00 0.00 0.00 84 1018.5
20260906052404 25 162 0.0 0.0 0.00 0.00 0.00 85 1018.2
20260906051901 25 130 0.0 0.0 0.00 0.00 0.00 85 1018.1
20260906051401 25 151 0.0 0.0 0.00 0.00 0.00 85 1018.1
20260906050856 25 152 0.0 0.0 0.00 0.00 0.00 85 1018.3
20260906050350 25 129 0.0 0.0 0.00 0.00 0.00 84 1017.6
20260906045850 25 107 0.0 0.0 0.00 0.00 0.00 84 1017.4
20260906045344 26 144 0.0 0.0 0.00 0.00 0.00 83 1017.5
20260906044840 26 119 0.0 0.0 0.00 0.00 0.00 83 1017.4
20260906044340 26 145 0.0 0.0 0.00 0.00 0.00 82 1017.5
20260906043836 26 137 0.0 0.0 0.00 0.00 0.00 83 1017.8
20260906043332 26 127 0.0 0.0 0.00 0.00 0.00 83 1017.8
20260906042827 26 136 0.0 0.0 0.00 0.00 0.00 83 1017.9
20260906042325 26 138 0.0 0.0 0.00 0.00 0.00 82 1018.4
20260906041821 26 136 0.0 0.0 0.00 0.00 0.00 82 1018.4
20260906041317 26 53 0.0 0.0 0.00 0.00 0.00 81 1018.3
20260906040811 26 117 0.0 0.0 0.00 0.00 0.00 81 1018.3
20260906040307 26 109 0.0 0.0 0.00 0.00 0.00 81 1018.2
20260906035802 26 80 0.0 1.6 0.00 0.00 0.00 80 1018.2
20260906035257 26 133 0.0 0.0 0.00 0.00 0.00 80 1018.3
20260906034757 27 101 0.0 0.0 0.00 0.00 0.00 79 1018.1
20260906034252 27 135 0.0 0.0 0.00 0.00 0.00 79 1018.4
20260906033748 27 132 0.0 0.0 0.00 0.00 0.00 78 1018.1
20260906033247 26 91 0.0 0.0 0.00 0.00 0.00 79 1018.1
20260906032744 26 129 0.0 0.0 0.00 0.00 0.00 79 1017.9
20260906032243 26 128 0.0 0.0 0.00 0.00 0.00 79 1017.9
20260906031739 26 125 0.0 0.0 0.00 0.00 0.00 79 1017.7
20260906031234 26 122 0.0 0.0 0.00 0.00 0.00 79 1017.7
20260906030729 26 136 0.0 0.0 0.00 0.00 0.00 78 1017.6
20260906030224 26 128 0.0 1.6 0.00 0.00 0.00 78 1017.6
20260906025723 27 116 0.0 0.0 0.00 0.00 0.00 78 1017.6
20260906025218 27 133 0.0 0.0 0.00 0.00 0.00 77 1017.3
20260906024717 27 121 0.0 0.0 0.00 0.00 0.00 76 1017.3
20260906024216 27 120 3.2 8.0 0.00 0.00 0.00 76 1017.5
20260906023712 27 113 0.0 0.0 0.00 0.00 0.00 76 1017.3
20260906023207 27 133 1.6 3.2 0.00 0.00 0.00 76 1017.2
20260906022702 27 106 0.0 0.0 0.00 0.00 0.00 76 1016.9
20260906022158 27 101 0.0 0.0 0.00 0.00 0.00 75 1016.8
20260906021654 27 120 0.0 0.0 0.00 0.00 0.00 75 1016.9
20260906021152 27 96 0.0 1.6 0.00 0.00 0.00 74 1016.6
20260906020647 27 132 0.0 1.6 0.00 0.00 0.00 74 1017.0
20260906020142 27 94 0.0 0.0 0.00 0.00 0.00 73 1017.2
20260906015636 27 117 0.0 0.0 0.00 0.00 0.00 73 1017.2
20260906015134 27 127 0.0 0.0 0.00 0.00 0.00 72 1017.4
20260906014629 27 137 0.0 0.0 0.00 0.00 0.00 72 1017.3
20260906014125 27 168 0.0 0.0 0.00 0.00 0.00 72 1017.4
20260906013620 28 123 0.0 0.0 0.00 0.00 0.00 71 1017.3
20260906013116 28 140 0.0 0.0 0.00 0.00 0.00 71 1017.1
20260906012611 28 135 0.0 0.0 0.00 0.00 0.00 70 1017.1
20260906012110 28 99 0.0 0.0 0.00 0.00 0.00 70 1017.2
20260906011606 28 33 0.0 0.0 0.00 0.00 0.00 70 1017.5
20260906011101 28 82 0.0 0.0 0.00 0.00 0.00 69 1017.3
20260906010556 28 163 0.0 0.0 0.00 0.00 0.00 68 1017.2
20260906010052 28 123 0.0 0.0 0.00 0.00 0.00 67 1017.1
20260906005551 28 103 0.0 0.0 0.00 0.00 0.00 67 1017.4
20260906005051 28 109 0.0 0.0 0.00 0.00 0.00 66 1017.5
20260906004550 28 95 0.0 0.0 0.00 0.00 0.00 65 1017.4
20260906004045 28 126 0.0 0.0 0.00 0.00 0.00 64 1017.6
20260906003540 29 106 0.0 0.0 0.00 0.00 0.00 64 1017.6
20260906003036 29 124 0.0 0.0 0.00 0.00 0.00 63 1017.6
20260906002531 29 101 0.0 0.0 0.00 0.00 0.00 63 1017.4
20260906002026 29 269 0.0 1.6 0.00 0.00 0.00 62 1017.2
20260906001521 30 34 0.0 0.0 0.00 0.00 0.00 62 1017.1
20260906001015 30 141 0.0 0.0 0.00 0.00 0.00 61 1016.8
20260906000512 30 110 0.0 0.0 0.00 0.00 0.00 61 1016.9
20260906000006 30 138 0.0 0.0 0.00 0.00 0.00 61 1016.9
20260905235500 30 126 0.0 0.0 0.00 0.00 0.00 60 1016.9
20260905234955 30 84 0.0 0.0 0.00 0.00 0.00 60 1016.8
20260905234450 30 114 1.6 3.2 0.00 0.00 0.00 59 1016.9
20260905233944 30 37 0.0 0.0 0.00 0.00 0.00 59 1017.1
20260905233440 31 95 0.0 1.6 0.00 0.00 0.00 58 1017.0
20260905232938 31 125 0.0 0.0 0.00 0.00 0.00 58 1016.8
20260905232435 31 67 0.0 3.2 0.00 0.00 0.00 56 1016.9
20260905231931 31 133 0.0 0.0 0.00 0.00 0.00 56 1016.9
20260905231426 32 134 0.0 1.6 0.00 0.00 0.00 55 1016.8
20260905230923 32 63 0.0 0.0 0.00 0.00 0.00 55 1016.5
20260905230420 32 132 0.0 0.0 0.00 0.00 0.00 55 1016.5
20260905225913 32 293 0.0 0.0 0.00 0.00 0.00 54 1016.3
20260905225409 31 97 0.0 0.0 0.00 0.00 0.00 55 1016.4
20260905224904 32 124 0.0 0.0 0.00 0.00 0.00 54 1016.3
20260905224359 32 109 0.0 0.0 0.00 0.00 0.00 54 1016.3
20260905223854 32 159 0.0 0.0 0.00 0.00 0.00 55 1016.1
20260905223351 32 97 0.0 0.0 0.00 0.00 0.00 54 1016.2
20260905222846 32 177 0.0 0.0 0.00 0.00 0.00 54 1016.0
20260905222344 32 119 0.0 1.6 0.00 0.00 0.00 54 1016.0
20260905221841 32 62 0.0 0.0 0.00 0.00 0.00 56 1016.0
20260905221337 32 151 1.6 4.8 0.00 0.00 0.00 56 1016.1
20260905220833 32 104 0.0 0.0 0.00 0.00 0.00 58 1016.2
20260905220329 32 161 0.0 0.0 0.00 0.00 0.00 57 1016.2
20260905215828 32 102 0.0 0.0 0.00 0.00 0.00 55 1016.1
20260905215324 32 177 0.0 0.0 0.00 0.00 0.00 54 1016.2
20260905214821 32 110 0.0 0.0 0.00 0.00 0.00 54 1016.3
20260905214315 32 51 0.0 0.0 0.00 0.00 0.00 54 1016.4
20260905213810 32 151 0.0 0.0 0.00 0.00 0.00 54 1016.5
20260905213307 32 81 0.0 0.0 0.00 0.00 0.00 55 1016.8
20260905212801 32 97 0.0 0.0 0.00 0.00 0.00 54 1016.9
20260905212301 31 166 0.0 0.0 0.00 0.00 0.00 55 1016.9
20260905211755 31 114 0.0 0.0 0.00 0.00 0.00 55 1017.1
20260905211250 31 41 0.0 0.0 0.00 0.00 0.00 54 1017.2
20260905210747 31 181 0.0 0.0 0.00 0.00 0.00 56 1017.2
20260905210247 31 86 0.0 0.0 0.00 0.00 0.00 55 1017.1
20260905205745 31 139 1.6 3.2 0.00 0.00 0.00 56 1017.5
20260905205241 31 142 0.0 0.0 0.00 0.00 0.00 55 1017.4
20260905204739 31 189 0.0 0.0 0.00 0.00 0.00 56 1017.4
20260905204235 32 130 1.6 1.6 0.00 0.00 0.00 55 1017.4
20260905203735 32 44 0.0 0.0 0.00 0.00 0.00 55 1017.4
20260905203231 31 179 0.0 1.6 0.00 0.00 0.00 56 1017.6